Overview Statistics Trail Chart Weather Telemetry Raw packets
 

This is the latest recevied weather packets stored in our database for station/object OK2ZAW-21. If no packets are shown the sender has not sent any weather packets the latest 10 day(s).

<< 99 100 101 102 103 104 105 >>
Time Temp. Humidity Pressure Rain* Wind** Luminosity Snow
1787914606 26.67° C 49% 1017.3 hPa - - 425 W/m² -
1787913982 26.67° C 48% 1017.4 hPa - - 426 W/m² -
1787913358 26.11° C 50% 1017.5 hPa - - 426 W/m² -
1787912734 26.67° C 50% 1018 hPa - - 426 W/m² -
1787912422 26.11° C 50% 1017.9 hPa - - 426 W/m² -
1787912110 25.56° C 51% 1018 hPa - - 426 W/m² -
1787911799 25° C 52% 1018 hPa - - 426 W/m² -
1787911487 25° C 53% 1018 hPa - - 426 W/m² -
1787911175 25.56° C 53% 1018.2 hPa - - 427 W/m² -
1787910863 24.44° C 55% 1018.3 hPa - - 427 W/m² -
1787910551 24.44° C 55% 1018.4 hPa - - 427 W/m² -
1787910240 24.44° C 55% 1018.5 hPa - - 427 W/m² -
1787909928 24.44° C 55% 1018.5 hPa - - 427 W/m² -
1787909616 23.89° C 56% 1018.7 hPa - - 427 W/m² -
1787909304 23.89° C 57% 1018.5 hPa - - 429 W/m² -
1787908993 23.89° C 58% 1018.8 hPa - - 428 W/m² -
1787908681 23.33° C 59% 1018.7 hPa - - 428 W/m² -
1787908058 22.78° C 60% 1019 hPa - - 427 W/m² -
1787907435 22.78° C 63% 1019.1 hPa - - 425 W/m² -
1787907123 22.22° C 63% 1018.8 hPa - - 425 W/m² -
1787906812 22.22° C 63% 1018.8 hPa - - 424 W/m² -
1787906500 21.67° C 64% 1018.9 hPa - - 424 W/m² -
1787906189 21.67° C 65% 1018.9 hPa - - 423 W/m² -
1787905878 21.67° C 65% 1018.6 hPa - - 424 W/m² -
1787905566 21.67° C 66% 1019.1 hPa - - 423 W/m² -

* Rain since midnight (hover to see other rain measurements)
** Current wind speed in m/s (hover to see current wind gust speed)